London, United Kingdom

2:12 PM GMT on February 22, 2017 (GMT +0000)
London

Weather History for 03772 - January, 2013

Change the Weather History Date:

Friday, January 4, 2013

  Actual Average Record
Temperature  
Mean Temperature 48 °F -  
Max Temperature 50 °F 45 °F - ()
Min Temperature 46 °F 35 °F - ()
Degree Days  
Heating Degree Days 17    
Moisture  
Dew Point 45 °F    
Average Humidity 84    
Maximum Humidity 93    
Minimum Humidity 73    
Precipitation  
Precipitation 0.00 in - - ()
Sea Level Pressure  
Sea Level Pressure 30.63 in    
Wind  
Wind Speed 10 mph ()    
Max Wind Speed 15 mph    
Max Gust Speed -    
Visibility 6.9 miles    
Events      
T = Trace of Precipitation, MM = Missing Value Source: Averaged Metar Reports

Daily Weather History Graph

Daily Weather History Graph

Search for Another Location

Airport or City:

Trip Planner

Search our weather history database for the weather conditions in past years. The results will help you decide how hot, cold, wet, or windy it might be!

Date:

Astronomy

Jan. 04, 2013 Rise Set
Actual Time 8:06 AM GMT 4:07 PM GMT
Civil Twilight 7:27 AM GMT 4:46 PM GMT
Nautical Twilight 6:44 AM GMT 5:29 PM GMT
Astronomical Twilight 6:03 AM GMT 6:10 PM GMT
Moon No Moon Rise 10:48 AM GMT (1/4)
Length of Visible Light 9h 19m
Length of Day
8h 00m
Waning Gibbous, 57% of the Moon is Illuminated
Jan 4
Waning Gibbous
Jan 5
Last Quarter
Jan 11
New
Jan 18
First Quarter
Jan 27
Full

Hourly Weather History & Observations

Time (GMT) Temp. Windchill Dew Point Humidity Pressure Visibility Wind Dir Wind Speed Gust Speed Precip Events Conditions
12:20 AM 50.0 °F - 46.4 °F 87% 30.63 in 6.2 mi West 9.2 mph - N/A   Mostly Cloudy
12:50 AM 50.0 °F - 46.4 °F 87% 30.63 in 6.2 mi West 10.4 mph - N/A   Mostly Cloudy
1:20 AM 50.0 °F - 46.4 °F 87% 30.63 in 6.2 mi West 10.4 mph - N/A   Overcast
1:50 AM 50.0 °F - 44.6 °F 82% 30.63 in 6.2 mi West 10.4 mph - N/A   Overcast
2:20 AM 50.0 °F - 44.6 °F 82% 30.63 in 6.2 mi West 10.4 mph - N/A   Overcast
2:50 AM 49 °F - 45 °F 82% 30.63 in 22 mi West 10.4 mph - -   Overcast
2:50 AM 50.0 °F - 44.6 °F 82% 30.63 in 6.2 mi West 11.5 mph - N/A   Mostly Cloudy
3:20 AM 50.0 °F - 44.6 °F 82% 30.63 in 6.2 mi West 6.9 mph - N/A   Mostly Cloudy
3:50 AM 50.0 °F - 44.6 °F 82% 30.63 in 6.2 mi West 12.7 mph - N/A   Mostly Cloudy
4:20 AM 48.2 °F - 44.6 °F 87% 30.63 in 6.2 mi West 9.2 mph - N/A   Mostly Cloudy
4:50 AM 50.0 °F - 44.6 °F 82% 30.63 in 6.2 mi West 11.5 mph - N/A   Mostly Cloudy
5:20 AM 50.0 °F - 44.6 °F 82% 30.63 in 6.2 mi West 12.7 mph - N/A   Mostly Cloudy
5:50 AM 49 °F - 44 °F 77% 30.63 in 17 mi West 12.7 mph - -  
5:50 AM 50.0 °F - 44.6 °F 82% 30.63 in 6.2 mi West 15.0 mph - N/A   Mostly Cloudy
6:20 AM 48.2 °F - 42.8 °F 82% 30.63 in 6.2 mi West 11.5 mph - N/A   Mostly Cloudy
6:50 AM 50.0 °F - 42.8 °F 76% 30.63 in 6.2 mi West 13.8 mph - N/A   Mostly Cloudy
7:20 AM 48.2 °F - 42.8 °F 82% 30.63 in 6.2 mi West 10.4 mph - N/A   Mostly Cloudy
7:50 AM 48.2 °F - 42.8 °F 82% 30.66 in 6.2 mi West 10.4 mph - N/A   Mostly Cloudy
8:20 AM 48.2 °F - 42.8 °F 82% 30.66 in 6.2 mi West 10.4 mph - N/A   Mostly Cloudy
8:50 AM 49 °F - 43 °F 73% 30.65 in 19 mi West 6.9 mph - -   Overcast
8:50 AM 48.2 °F - 42.8 °F 82% 30.66 in 6.2 mi West 10.4 mph - N/A   Mostly Cloudy
9:20 AM 48.2 °F - 42.8 °F 82% 30.66 in 6.2 mi West 9.2 mph - N/A   Mostly Cloudy
9:50 AM 50.0 °F - 42.8 °F 76% 30.66 in 6.2 mi West 9.2 mph - N/A   Mostly Cloudy
10:20 AM 50.0 °F - 42.8 °F 76% 30.66 in 6.2 mi West 10.4 mph - N/A   Mostly Cloudy
10:50 AM 50.0 °F - 42.8 °F 76% 30.66 in 6.2 mi West 12.7 mph - N/A   Mostly Cloudy
11:20 AM 50.0 °F - 42.8 °F 76% 30.66 in 6.2 mi West 13.8 mph - N/A   Mostly Cloudy
11:50 AM 50 °F - 44 °F 73% 30.66 in 16 mi West 12.7 mph - -   Overcast
11:50 AM 50.0 °F - 42.8 °F 76% 30.66 in 6.2 mi West 12.7 mph - N/A   Mostly Cloudy
12:20 PM 50.0 °F - 44.6 °F 82% 30.66 in 6.2 mi West 15.0 mph - N/A   Mostly Cloudy
12:50 PM 50.0 °F - 44.6 °F 82% 30.63 in 6.2 mi West 12.7 mph - N/A   Mostly Cloudy
1:20 PM 50.0 °F - 44.6 °F 82% 30.63 in 6.2 mi West 10.4 mph - N/A   Mostly Cloudy
1:50 PM 50.0 °F - 44.6 °F 82% 30.63 in 6.2 mi West 12.7 mph - N/A   Mostly Cloudy
2:20 PM 50.0 °F - 46.4 °F 87% 30.63 in 6.2 mi West 13.8 mph - N/A   Mostly Cloudy
2:50 PM 51 °F - 46 °F 75% 30.63 in 16 mi WNW 10.4 mph - -   Overcast
2:50 PM 50.0 °F - 46.4 °F 87% 30.63 in 6.2 mi WNW 11.5 mph - N/A   Mostly Cloudy
3:20 PM 50.0 °F - 46.4 °F 87% 30.63 in 6.2 mi West 10.4 mph - N/A   Mostly Cloudy
3:50 PM 50.0 °F - 46.4 °F 87% 30.63 in 6.2 mi West 12.7 mph - N/A   Mostly Cloudy
4:20 PM 50.0 °F - 46.4 °F 87% 30.63 in 6.2 mi West 13.8 mph - N/A   Mostly Cloudy
4:50 PM 50.0 °F - 46.4 °F 87% 30.63 in 6.2 mi West 12.7 mph - N/A   Mostly Cloudy
5:20 PM 50.0 °F - 46.4 °F 87% 30.63 in 6.2 mi West 11.5 mph - N/A   Mostly Cloudy
5:50 PM 49 °F - 46 °F 86% 30.63 in 12 mi West 10.4 mph - -   Overcast
5:50 PM 50.0 °F - 46.4 °F 87% 30.63 in 6.2 mi West 11.5 mph - N/A   Mostly Cloudy
6:20 PM 48.2 °F - 46.4 °F 93% 30.63 in 6.2 mi West 11.5 mph - N/A   Mostly Cloudy
6:50 PM 48.2 °F - 46.4 °F 93% 30.63 in 6.2 mi West 9.2 mph - N/A   Mostly Cloudy
7:20 PM 48.2 °F - 46.4 °F 93% 30.63 in 6.2 mi West 13.8 mph - N/A   Mostly Cloudy
7:50 PM 48.2 °F - 44.6 °F 87% 30.63 in 5.6 mi West 9.2 mph - N/A   Mostly Cloudy
8:20 PM 48.2 °F - 46.4 °F 93% 30.63 in 5.0 mi West 9.2 mph - N/A   Mostly Cloudy
8:50 PM 48 °F - 46 °F 88% 30.63 in 6 mi WSW 12.7 mph - -   Light Haze
8:50 PM 48.2 °F - 44.6 °F 87% 30.63 in 5.0 mi WSW 13.8 mph - N/A   Mostly Cloudy
9:20 PM 48.2 °F - 44.6 °F 87% 30.63 in 5.0 mi West 12.7 mph - N/A   Mostly Cloudy
9:50 PM 46.4 °F 40.4 °F 44.6 °F 93% 30.63 in 5.0 mi West 13.8 mph - N/A   Mostly Cloudy
10:20 PM 46.4 °F 41.1 °F 44.6 °F 93% 30.63 in 5.0 mi West 11.5 mph - N/A   Mostly Cloudy
10:50 PM 46.4 °F 40.4 °F 44.6 °F 93% 30.60 in 5.0 mi West 13.8 mph - N/A   Mostly Cloudy
11:20 PM 46.4 °F 41.1 °F 44.6 °F 93% 30.60 in 5.6 mi West 11.5 mph - N/A   Mostly Cloudy
11:50 PM 47 °F - 44 °F 86% 30.62 in 7 mi West 8.1 mph - -   Overcast
11:50 PM 46.4 °F 42.4 °F 44.6 °F 93% 30.60 in 6.2 mi West 8.1 mph - N/A   Mostly Cloudy